Torna al catalogo

COSMOS 2251 DEB

AttivoLEO
NORAD 34127·DEBRIS·🇷🇺 Russia

Lanciato Jun 16, 1993 da Plesetsk Cosmodrome

Loading…

Prossimi Passaggi (prossime 24 ore)

TLE

AggiornatoSource: Space-Track

Epoca: Sep 13, 2026, 01:47 UTC

1 34127U 93036KY  26256.07443786  .00002818  00000-0  96123-3 0  9991
2 34127  74.1734 267.1736 0109673  27.3491  32.1456 14.33505982907006

Traccia COSMOS 2251 DEB in tempo reale con AllMySat

Download on the App Store